Location: Rioux
(40.7500°S, 175.7500°E)
Time: 09:48:50
(UTC+00:00)

Centaur D-1A AC-31 - Pass Details

Date: 12 June 2024
Orbit: 564 x 36352 km, 27.8° (Epoch: 13 July)

Event Time Altitude Azimuth Distance (km) Brightness Sun altitude
Exits shadow 18:15:37 - 308° (NW) 2,280 3.6 -15.2°
Reaches altitude 10° 18:16:07 10° 313° (NW) 2,129 3.5 -15.1°
Maximum altitude 18:19:42 25° 12° (NNE) 1,980 4.0 -14.4°
Drops below altitude 10° 18:28:27 10° 64° (ENE) 5,437 7.3 -12.9°
Sets 18:38:52 0° 73° (ENE) 9,676 9.3 -11.0°
